Location: Overspoor
(51.4747°N, 5.6641°E)
Time: 07:24:17
(UTC+02:00)

JY1SAT - Visible Passes

Search period start: 26 June 2022 00:00
Search period end: 06 July 2022 00:00
Orbit: 566 x 585 km, 97.6° (Epoch: 25 June)

Date Brightness Start Highest point End Pass type
(mag) Time Alt. Az. Time Alt. Az. Time Alt. Az.
26 Jun ? 23:33:47 10° SSW 23:37:38 36° W 23:41:31 10° NNW visible
27 Jun ? 23:37:30 10° SSW 23:41:17 34° W 23:45:05 10° NNW visible
28 Jun ? 23:41:13 10° SSW 23:44:56 31° W 23:48:40 10° NNW visible
29 Jun ? 23:44:57 10° SSW 23:48:34 29° W 23:52:13 10° NNW visible
30 Jun ? 23:48:41 10° SSW 23:52:13 27° W 23:55:46 10° NW visible
01 Jul ? 23:52:25 10° SSW 23:55:52 25° W 23:59:19 10° NW visible
02 Jul ? 23:56:11 10° SW 23:59:30 23° W 00:02:51 10° NW visible
03 Jul ? 23:59:56 10° SW 00:03:08 21° W 00:06:22 10° NW visible
05 Jul ? 00:03:43 10° SW 00:06:47 20° W 00:09:52 10° NW visible
